Date,TemperatureHighF,TemperatureAvgF,TemperatureLowF,DewpointHighF,DewpointAvgF,DewpointLowF,HumidityHigh,HumidityAvg,HumidityLow,PressureMaxIn,PressureMinIn,WindSpeedMaxMPH,WindSpeedAvgMPH,GustSpeedMaxMPH,PrecipitationSumIn
2013-2-1,28,24,18,-100,-100,-100,0,0,100,0.00,40.00,0,-999,0,0.01
2013-2-2,25,19,10,-100,-100,-100,0,0,100,0.00,40.00,0,-999,0,0.00
2013-2-3,28,22,13,-100,-100,-100,0,0,100,0.00,40.00,0,-999,0,0.00
2013-2-4,25,20,13,-100,-100,-100,0,0,100,0.00,40.00,0,-999,0,0.00
2013-2-5,27,18,8,-100,-100,-100,0,0,100,0.00,40.00,0,-999,0,0.00
2013-2-6,34,26,20,-100,-100,-100,0,0,100,0.00,40.00,0,-999,0,0.00
2013-2-7,25,19,10,-100,-100,-100,0,0,100,0.00,40.00,0,-999,0,0.00
2013-2-8,22,20,16,-100,-100,-100,0,0,100,0.00,40.00,0,-999,0,0.39
2013-2-9,19,15,7,-100,-100,-100,0,0,100,0.00,40.00,0,-999,0,1.26
2013-2-10,28,13,-5,-100,-100,-100,0,0,100,0.00,40.00,0,-999,0,0.01
2013-2-11,33,25,10,-100,-100,-100,0,0,100,0.00,40.00,0,-999,0,0.16
2013-2-12,37,34,31,-100,-100,-100,0,0,100,0.00,40.00,0,-999,0,0.02
2013-2-13,37,32,25,-100,-100,-100,0,0,100,0.00,40.00,0,-999,0,0.00
2013-2-14,41,29,18,-100,-100,-100,0,0,100,0.00,40.00,0,-999,0,0.00
2013-2-15,47,31,18,-100,-100,-100,0,0,100,0.00,40.00,0,-999,0,0.00
2013-2-16,36,31,24,-100,-100,-100,0,0,100,0.00,40.00,0,-999,0,0.00
2013-2-17,24,18,12,-100,-100,-100,0,0,100,0.00,40.00,0,-999,0,0.00
2013-2-18,29,16,4,-100,-100,-100,0,0,100,0.00,40.00,0,-999,0,0.00
2013-2-19,42,26,9,-100,-100,-100,0,0,100,0.00,40.00,0,-999,0,0.07
2013-2-20,33,28,22,-100,-100,-100,0,0,100,0.00,40.00,0,-999,0,0.09
2013-2-21,27,23,18,-100,-100,-100,0,0,100,0.00,40.00,0,-999,0,0.00
2013-2-22,40,28,15,-100,-100,-100,0,0,100,0.00,40.00,0,-999,0,0.00
2013-2-23,34,31,29,-100,-100,-100,0,0,100,0.00,40.00,0,-999,0,0.05
2013-2-24,35,32,31,-100,-100,-100,0,0,100,0.00,40.00,0,-999,0,0.23
2013-2-25,35,31,24,-100,-100,-100,0,0,100,0.00,40.00,0,-999,0,0.10
2013-2-26,40,33,27,-100,-100,-100,0,0,100,0.00,40.00,0,-999,0,0.00
2013-2-27,36,33,31,-100,-100,-100,0,0,100,0.00,40.00,0,-999,0,0.61
2013-2-28,42,34,30,-100,-100,-100,0,0,100,0.00,40.00,0,-999,0,0.02